This demonstration page uses our WeatherBlox Daily Observations layout. Learn more.

Left ArrowRight Arrow

Hourly Observations for April 22, 2018

Temp ( °F °C ) Dew Point ( °F °C ) Humidity (%) Winds ( mph kmh ) Pressure ( in mb ) Visibility ( mi km ) Precip ( " mm )
12:59 am 00:59 Mostly Cloudy 48 8.9 36 2.2 63 63 S 6 9 30.42 1030 10 16 0.00 0.00
1:59 am 01:59 Cloudy 48 8.9 36 2.2 63 63 SSE 5 7 30.41 1030 10 16 0.00 0.00
2:59 am 02:59 Partly Cloudy 47 8.3 37 2.8 69 69 Calm 30.40 1029 10 16 0.00 0.00
3:59 am 03:59 Mostly Cloudy 45 7.2 37 2.8 74 74 Calm 30.41 1030 10 16 0.00 0.00
4:59 am 04:59 Partly Cloudy 43 6.1 37 2.8 80 80 Calm 30.40 1030 10 16 0.00 0.00
5:59 am 05:59 Mostly Cloudy 41 5 36 2.2 82 82 SSE 3 6 30.40 1029 10 16 0.00 0.00
6:59 am 06:59 Mostly Cloudy 43 6.1 36 2.2 76 76 Calm 30.42 1030 10 16 0.00 0.00
7:59 am 07:59 Partly Cloudy 51 10.6 36 2.2 56 56 Calm 30.42 1030 10 16 0.00 0.00
8:59 am 08:59 Partly Cloudy 56 13.3 32 0 40 40 VRB 3 6 30.42 1030 10 16 0.00 0.00
9:59 am 09:59 Mostly Sunny 60 15.6 37 2.8 42 42 VRB 3 6 30.43 1030 10 16 0.00 0.00
10:59 am 10:59 Mostly Cloudy 63 17.2 40 4.4 43 43 NNE 7 11 30.43 1030 10 16 0.00 0.00
11:59 am 11:59 Mostly Cloudy 62 16.7 41 5 46 46 ENE 10 17 30.41 1030 10 16 0.00 0.00
12:59 pm 12:59 Mostly Cloudy 62 16.7 34 1.1 35 35 E 14 22 30.40 1030 10 16 0.00 0.00
1:59 pm 13:59 Cloudy 62 16.7 31 -0.6 31 31 E 13 20 30.40 1029 10 16 0.00 0.00
2:59 pm 14:59 Cloudy 62 16.7 33 0.6 34 34 E 13 20 30.40 1029 10 16 0.00 0.00
3:59 pm 15:59 Cloudy 62 16.7 32 0 32 32 ESE 9 15 30.37 1029 10 16 0.00 0.00
4:59 pm 16:59 Cloudy 62 16.7 31 -0.6 31 31 ESE 12 19 30.36 1028 10 16 0.00 0.00
5:59 pm 17:59 Cloudy 60 15.6 31 -0.6 33 33 SE 12 19 30.35 1028 10 16 0.00 0.00
6:59 pm 18:59 Cloudy 56 13.3 35 1.7 46 46 SE 9 15 30.35 1028 10 16 0.00 0.00
7:59 pm 19:59 Cloudy 54 12.2 35 1.7 49 49 ESE 7 11 30.37 1028 10 16 0.00 0.00
8:59 pm 20:59 Cloudy 53 11.7 33 0.6 47 47 SE 9 15 30.38 1029 10 16 0.00 0.00
9:59 pm 21:59 Cloudy 53 11.7 35 1.7 51 51 SE 6 9 30.40 1029 10 16 0.00 0.00
10:59 pm 22:59 Mostly Cloudy 52 11.1 38 3.3 59 59 SSE 8 13 30.39 1029 10 16 0.00 0.00
11:59 pm 23:59 Mostly Cloudy 52 11.1 39 3.9 61 61 SE 6 9 30.40 1030 10 16 0.00 0.00

Powered by AerisWeather